Stations météo

réclame
Mon MeteoGroup
Semmerzake, Belgique (6428): Température de l'air & dewpoint: 15.09.2018 10:00:00 - 21.09.2018 10:00:00 (CEST)Semmerzake, Belgique (6428): Vitesse du vent & gusts: 15.09.2018 10:00:00 - 21.09.2018 10:00:00 (CEST)Semmerzake, Belgique (6428): Direction du vent: 15.09.2018 10:00:00 - 21.09.2018 10:00:00 (CEST)Semmerzake, Belgique (6428): reduced air pressure: 15.09.2018 10:00:00 - 21.09.2018 10:00:00 (CEST)Semmerzake, Belgique (6428): visibility: 15.09.2018 10:00:00 - 21.09.2018 10:00:00 (CEST)
Date & Time tt [°C] td [°C] ff [km/h] ff [knt] fx [km/h] fx [knt] dd ppp [hPa] vv [km]
21.09.2018 10:00:00 - - - - - - - - -
21.09.2018 09:00:00 - - - - - - - - -
21.09.2018 08:00:00 14,2 12,7 25 14 - - WSW 1004,7 9
21.09.2018 07:00:00 16,7 14,8 32 18 58 31 SSW 1002,3 8
21.09.2018 06:00:00 18,7 13,2 29 16 54 29 SSW 1002,8 20
21.09.2018 05:00:00 18,7 12,9 29 16 - - S 1002,7 20
21.09.2018 04:00:00 19,0 12,9 29 16 43 23 SSW 1004,5 20
21.09.2018 03:00:00 19,5 13,2 25 14 40 21 SSW 1005,7 20
21.09.2018 02:00:00 20,1 13,1 25 14 - - SSW 1006,7 20
21.09.2018 01:00:00 20,1 13,1 22 12 36 19 SSW 1007,6 20
21.09.2018 00:00:00 20,7 13,1 22 12 36 19 SSW 1008,2 20
20.09.2018 23:00:00 20,7 13,0 25 14 - - SSW 1008,7 20
20.09.2018 22:00:00 20,7 13,0 22 12 29 16 S 1009,7 20
20.09.2018 21:00:00 21,0 13,1 18 10 29 16 S 1010,6 20
20.09.2018 20:00:00 21,8 13,2 18 10 - - S 1011,3 20
20.09.2018 19:00:00 22,7 13,1 18 10 36 19 SSW 1011,8 20
20.09.2018 18:00:00 23,6 13,0 22 12 47 25 SSW 1012,5 20
20.09.2018 17:00:00 23,1 13,1 22 12 - - SSW 1013,2 20
20.09.2018 16:00:00 23,1 12,9 22 12 40 21 S 1014,2 20
20.09.2018 15:00:00 22,7 13,1 25 14 40 21 S 1015,0 20
20.09.2018 14:00:00 22,1 13,6 22 12 - - SSW 1015,8 19
20.09.2018 13:00:00 20,8 14,2 18 10 36 19 SW 1016,5 20
20.09.2018 12:00:00 19,0 13,8 22 12 36 19 SSW 1016,8 20
20.09.2018 11:00:00 18,6 14,0 18 10 - - SW 1017,2 20
20.09.2018 10:00:00 17,8 13,9 14 8 29 16 SSW 1017,2 20
20.09.2018 09:00:00 16,5 13,3 18 10 29 16 SSW 1017,2 20
20.09.2018 08:00:00 15,6 13,1 14 8 - - SSW 1017,1 20
20.09.2018 07:00:00 15,4 12,8 14 8 22 12 S 1017,0 20
20.09.2018 06:00:00 15,0 12,6 11 6 18 10 S 1017,2 20
20.09.2018 05:00:00 15,1 12,6 11 6 - - S 1017,5 20
20.09.2018 04:00:00 15,6 12,7 11 6 14 8 S 1017,2 20
20.09.2018 03:00:00 17,0 12,9 7 4 11 6 SSW 1017,2 20
20.09.2018 02:00:00 16,6 12,7 7 4 - - SSW 1017,7 20
20.09.2018 01:00:00 17,2 12,8 11 6 14 8 SSW 1017,7 20
20.09.2018 00:00:00 18,0 13,0 11 6 22 12 S 1018,0 20
19.09.2018 23:00:00 18,1 13,1 7 4 - - S 1018,2 20
19.09.2018 22:00:00 18,7 13,2 7 4 14 8 S 1018,0 20
19.09.2018 21:00:00 20,6 13,4 7 4 14 8 SSW 1017,7 20
19.09.2018 20:00:00 21,2 13,2 11 6 - - SSW 1017,5 20
19.09.2018 19:00:00 22,1 13,3 11 6 32 18 SSW 1017,2 20
19.09.2018 18:00:00 22,5 12,8 22 12 36 19 SW 1017,1 20
19.09.2018 17:00:00 22,7 12,9 18 10 - - SW 1017,1 20
19.09.2018 16:00:00 22,9 12,7 22 12 40 21 SW 1017,0 20
19.09.2018 15:00:00 22,7 12,4 25 14 43 23 SSW 1017,0 20
19.09.2018 14:00:00 22,2 12,3 22 12 - - SSW 1017,1 20
19.09.2018 13:00:00 21,9 12,8 18 10 36 19 SW 1017,2 20
19.09.2018 12:00:00 20,8 12,9 22 12 36 19 SW 1017,2 20
19.09.2018 11:00:00 19,8 13,5 18 10 - - SW 1017,3 19
19.09.2018 10:00:00 18,0 13,7 14 8 29 16 SW 1016,8 19
19.09.2018 09:00:00 16,5 13,9 14 8 25 14 SSW 1016,7 19
19.09.2018 08:00:00 16,1 13,9 14 8 - - SSW 1016,1 20
19.09.2018 07:00:00 16,2 14,1 14 8 22 12 SSW 1015,7 19
19.09.2018 06:00:00 16,2 14,5 14 8 18 10 S 1015,7 18
19.09.2018 05:00:00 15,8 14,0 11 6 - - S 1015,7 18
19.09.2018 04:00:00 15,1 13,0 7 4 14 8 SSE 1016,0 19
19.09.2018 03:00:00 15,3 13,0 7 4 14 8 SSE 1016,1 19
19.09.2018 02:00:00 15,1 12,8 7 4 - - SSE 1016,2 20
19.09.2018 01:00:00 15,3 12,6 7 4 11 6 SSE 1016,5 20
19.09.2018 00:00:00 15,5 13,0 7 4 7 4 S 1016,2 20
18.09.2018 23:00:00 16,2 12,9 4 2 - - N 1016,2 20
18.09.2018 22:00:00 17,0 13,1 4 2 11 6 N 1016,3 20
18.09.2018 21:00:00 18,6 13,3 11 6 22 12 WSW 1016,2 20
18.09.2018 20:00:00 20,1 13,3 11 6 - - W 1015,2 20
18.09.2018 19:00:00 20,7 13,1 11 6 29 16 WSW 1014,7 20
18.09.2018 18:00:00 22,5 13,1 18 10 36 19 WSW 1014,3 20
18.09.2018 17:00:00 24,1 13,2 18 10 - - WSW 1013,8 20
18.09.2018 16:00:00 24,2 13,0 25 14 47 25 WSW 1013,7 20
18.09.2018 15:00:00 24,0 13,2 29 16 43 23 SW 1013,5 20
18.09.2018 14:00:00 22,9 13,4 22 12 - - SW 1013,2 20
18.09.2018 13:00:00 22,6 13,9 22 12 40 21 SW 1013,0 20
18.09.2018 12:00:00 21,2 13,5 25 14 40 21 SW 1012,7 20
18.09.2018 11:00:00 20,6 13,6 22 12 - - SSW 1012,2 20
18.09.2018 10:00:00 20,2 12,3 14 8 29 16 SSW 1011,7 20
18.09.2018 09:00:00 18,7 10,4 14 8 25 14 SSW 1011,7 20
18.09.2018 08:00:00 18,6 9,3 14 8 - - SSW 1011,0 20
18.09.2018 07:00:00 19,2 8,7 14 8 25 14 S 1010,1 20
18.09.2018 06:00:00 17,2 8,2 11 6 18 10 S 1010,0 20
18.09.2018 05:00:00 17,7 7,5 14 8 - - S 1010,2 20
18.09.2018 04:00:00 17,4 6,9 11 6 22 12 SSE 1010,7 20
18.09.2018 03:00:00 17,2 6,9 11 6 18 10 SSE 1011,2 20
18.09.2018 02:00:00 17,5 6,9 11 6 - - SSE 1011,7 20
18.09.2018 01:00:00 17,7 6,9 11 6 18 10 SSE 1012,2 20
18.09.2018 00:00:00 18,4 6,5 11 6 14 8 SE 1012,8 20
17.09.2018 23:00:00 18,7 6,5 7 4 - - SE 1013,2 20
17.09.2018 22:00:00 18,0 7,5 4 2 11 6 N 1013,8 20
17.09.2018 21:00:00 19,4 7,8 7 4 11 6 SE 1014,2 20
17.09.2018 20:00:00 21,5 8,5 7 4 - - SSE 1014,3 20
17.09.2018 19:00:00 23,3 8,5 4 2 18 10 N 1014,8 20
17.09.2018 18:00:00 25,0 6,8 11 6 22 12 S 1015,2 20
17.09.2018 17:00:00 25,0 6,5 14 8 - - S 1016,1 20
17.09.2018 16:00:00 24,7 7,9 14 8 25 14 S 1016,7 20
17.09.2018 15:00:00 24,0 8,4 14 8 25 14 SSW 1017,6 20
17.09.2018 14:00:00 23,9 9,2 14 8 - - S 1018,2 20
17.09.2018 13:00:00 22,4 9,4 14 8 25 14 S 1018,7 20
17.09.2018 12:00:00 20,5 9,8 11 6 18 10 S 1019,5 19
17.09.2018 11:00:00 - - - - - - - - -
17.09.2018 10:00:00 16,2 10,1 7 4 14 8 S 1019,7 20
17.09.2018 09:00:00 13,2 9,2 7 4 11 6 S 1020,0 20
17.09.2018 08:00:00 11,4 8,6 7 4 - - S 1019,8 20
17.09.2018 07:00:00 11,7 8,5 4 2 11 6 N 1019,6 20
17.09.2018 06:00:00 12,1 8,7 7 4 11 6 N 1019,1 20
17.09.2018 05:00:00 12,3 9,0 11 6 - - S 1019,7 20
17.09.2018 04:00:00 12,9 8,9 4 2 11 6 N 1020,1 20
17.09.2018 03:00:00 13,1 9,2 7 4 11 6 S 1019,8 20
17.09.2018 02:00:00 13,5 9,1 7 4 - - S 1020,2 20
17.09.2018 01:00:00 12,1 9,7 4 2 11 6 N 1020,3 20
17.09.2018 00:00:00 15,1 9,3 7 4 11 6 S 1020,0 20
16.09.2018 23:00:00 15,1 9,7 7 4 - - S 1020,2 20
16.09.2018 22:00:00 15,8 9,8 4 2 11 6 N 1020,6 20
16.09.2018 21:00:00 15,9 9,9 4 2 4 2 N 1020,3 20
16.09.2018 20:00:00 19,1 9,7 4 2 - - N 1020,0 20
16.09.2018 19:00:00 21,6 9,3 7 4 18 10 SW 1019,7 20
16.09.2018 18:00:00 21,5 9,1 11 6 22 12 SSW 1019,7 20
16.09.2018 17:00:00 21,6 9,4 11 6 - - S 1019,7 20
16.09.2018 16:00:00 21,8 9,5 11 6 22 12 SSW 1020,2 20
16.09.2018 15:00:00 21,5 9,0 14 8 25 14 SSW 1020,7 20
16.09.2018 14:00:00 22,1 9,1 14 8 - - SSW 1021,3 20
16.09.2018 13:00:00 20,5 9,7 14 8 29 16 SSW 1022,0 20
16.09.2018 12:00:00 19,6 10,1 14 8 25 14 S 1022,2 19
16.09.2018 11:00:00 17,5 9,9 14 8 - - SSW 1022,7 20
16.09.2018 10:00:00 14,8 10,4 11 6 14 8 S 1022,7 20
16.09.2018 09:00:00 12,8 9,7 7 4 14 8 S 1022,6 20
16.09.2018 08:00:00 10,8 9,3 7 4 - - S 1022,8 19
16.09.2018 07:00:00 9,3 8,5 4 2 7 4 N 1022,7 12
16.09.2018 06:00:00 9,3 8,2 4 2 7 4 N 1023,0 11
16.09.2018 05:00:00 10,6 9,2 4 2 - - N 1023,0 19
16.09.2018 04:00:00 11,2 9,4 7 4 11 6 SSE 1023,2 18
16.09.2018 03:00:00 11,5 9,9 4 2 7 4 N 1024,0 19
16.09.2018 02:00:00 10,4 9,3 4 2 - - N 1024,5 19
16.09.2018 01:00:00 11,3 9,7 4 2 4 2 N 1025,2 20
16.09.2018 00:00:00 11,2 9,2 4 2 4 2 N 1025,2 20
15.09.2018 23:00:00 12,6 9,1 4 2 - - N 1025,2 20
15.09.2018 22:00:00 13,9 8,9 4 2 7 4 N 1025,5 20
15.09.2018 21:00:00 15,1 8,8 4 2 7 4 N 1025,2 20
15.09.2018 20:00:00 17,0 9,0 4 2 - - N 1024,7 20
15.09.2018 19:00:00 18,5 9,6 4 2 14 8 N 1024,5 20
15.09.2018 18:00:00 19,2 9,9 4 2 14 8 N 1024,5 20
15.09.2018 17:00:00 20,1 9,2 7 4 - - WNW 1024,7 20
15.09.2018 16:00:00 20,6 8,1 11 6 25 14 WSW 1024,9 20
15.09.2018 15:00:00 20,0 8,1 7 4 22 12 WNW 1025,0 20
15.09.2018 14:00:00 19,5 9,6 7 4 - - W 1025,5 20
15.09.2018 13:00:00 18,7 9,9 11 6 22 12 WSW 1025,4 20
15.09.2018 12:00:00 17,0 10,6 11 6 18 10 W 1025,5 20
15.09.2018 11:00:00 16,6 12,1 11 6 - - SW 1025,4 20
15.09.2018 10:00:00 14,1 11,9 7 4 11 6 SW 1025,2 20

tt = Température de l'air
td = dewpoint
ff = Vitesse du vent
fx = gusts
dd = Direction du vent
ppp = reduced air pressure
vv = visibility

stations d'obs. à proximité